Regional Weather Roundup
Issued by NWS Upton, NY

Current Version | Previous Version | Graphics & Text | Print | Product List | Glossary Off
Versions: 1 2 3 4 5 6 7 8 9 10 11 12 13 14 15 16 17 18 19 20 21 22 23 24 25 26 27 28 29 30 31 32 33 34 35 36 37 38 39 40 41 42 43 44 45 46 47 48 49 50

000
ASUS41 KOKX 292307
RWROKX

REGIONAL WEATHER ROUNDUP
NATIONAL WEATHER SERVICE NEW YORK NY
700 PM EDT SUN MAR 29 2015

NOTE: "FAIR" INDICATES FEW OR NO CLOUDS BELOW 12,000 FEET WITH NO
SIGNIFICANT WEATHER AND/OR OBSTRUCTIONS TO VISIBILITY.

NYZ071-072-176-178-NJZ106-104-300000-
NEW YORK CITY METRO AREA


CITY           SKY/WX    TMP DP  RH WIND       PRES   REMARKS
CENTRAL PARK   CLEAR     45   4  18 VRB5      30.18S
LAGUARDIA APRT PTCLDY    46   5  18 W8        30.16F
KENNEDY INTL   CLEAR     39  21  48 S15       30.19S WCI  31
NEWARK/LIBERTY PTCLDY    45   2  17 W12       30.16F
BRNX BOT. GARD   N/A    N/A N/A N/A W3        30.17S
TETERBORO      CLEAR     46   6  19 VRB6      30.15F
$$

NYZ177-179-078>081-300000-
LONG ISLAND NEW YORK

CITY           SKY/WX    TMP DP  RH WIND       PRES   REMARKS
FARMINGDALE    CLEAR     40  14  34 SW7       30.17S
ISLIP          PTCLDY    39  14  36 SW7       30.16S WCI  34
SHIRLEY        CLEAR     39  17  41 SW6       30.18S WCI  35
WESTHAMPTON    CLEAR     36  20  52 SW8       30.19R WCI  30
MONTAUK POINT    N/A     39  15  37 W7        30.17S WCI  34
$$

NYZ052-065-067-300000-
HUDSON VALLEY

CITY           SKY/WX    TMP DP  RH WIND       PRES   REMARKS
WHITE PLAINS   FAIR      42   2  18 W6        30.13F
NEWBURGH       NOT AVBL
MONTGOMERY     CLEAR     41   6  23 W9        30.11F
POUGHKEEPSIE   CLEAR     44   2  17 SW8       30.12S
ALBANY         PTCLDY    40   4  22 W3        30.11F
$$

NJZ001-105-106-008-010-013-015-019>022-104-300000-
NEW JERSEY

CITY           SKY/WX    TMP DP  RH WIND       PRES   REMARKS
NEWARK/LIBERTY PTCLDY    45   2  17 W12       30.16F
TETERBORO      CLEAR     46   6  19 VRB6      30.15F
CALDWELL       CLEAR     45   1  16 W7        30.15F
MORRISTOWN     PTCLDY    45   3  18 W9        30.16F
SOMERVILLE     CLEAR     44   4  19 VRB3      30.15F
SUSSEX         CLEAR     42   4  20 SW5       30.13F
ANDOVER          N/A     42   1  18 VRB6      30.13F
TRENTON        CLEAR     43   7  22 W9        30.17F
MILLVILLE      CLEAR     40  12  32 W10       30.23F WCI  33
ATLANTIC CITY  CLEAR     42   9  25 W9        30.21F
WRIGHTSTOWN    CLEAR     42   9  25 W9        30.17F
TOMS RIVER     CLEAR     43   9  24 CALM      30.19F
BELMAR         CLEAR     41  16  36 SW5       30.19S
$$

PAZ047>061-062-071-300000-
EASTERN PENNSYLVANIA

CITY           SKY/WX    TMP DP  RH WIND       PRES   REMARKS
PHILADELPHIA   CLEAR     43   8  23 SW10      30.21F
ALLENTOWN      CLEAR     42  10  27 SW14      30.15F
SCRANTON       CLEAR     41   5  22 SW7       30.08F
$$

CTZ002-004>006-009-010-012-RIZ004-006-007-MAZ004-011-015-300000-
SOUTHERN NEW ENGLAND
 IN CT

CITY           SKY/WX    TMP DP  RH WIND       PRES   REMARKS
BRADLEY INTL   CLEAR     41   5  22 W10       30.12R
HARTFORD       CLEAR     42   3  19 W6        30.14R
DANBURY        CLEAR     39   6  25 SW6       30.14S WCI  35
WTRBRY/OXFORD  PTCLDY    39   9  28 W6        30.13S WCI  35
BRIDGEPORT     CLEAR     39  22  50 SW8       30.16S WCI  33
MERIDEN        CLEAR     40   7  25 NW3       30.14S
NEW HAVEN      CLEAR     38  20  48 SW6       30.15S WCI  33
CHESTER        FAIR      39   1  20 W6        30.14R WCI  35
GROTON         CLEAR     36  19  50 W12       30.15R WCI  28
WILLIMANTIC    CLEAR     41   2  19 W3        30.13R

 IN RI

CITY           SKY/WX    TMP DP  RH WIND       PRES   REMARKS
PROVIDENCE     CLEAR     37  23  56 S9        30.13R WCI  30
BLOCK ISLAND   CLEAR     36  18  48 SW9       30.15S WCI  29
WESTERLY       CLEAR     36  19  50 SW8       30.16R WCI  30

 IN MA

CITY           SKY/WX    TMP DP  RH WIND       PRES   REMARKS
BOSTON         CLEAR     41   3  20 W8        30.11R
WORCESTER      CLEAR     37   3  24 W8        30.08R WCI  31
WESTFIELD      CLEAR     41   2  19 W7        30.11S
PROVINCETOWN   CLEAR     34  12  40 S6        30.14R WCI  29
NANTUCKET      CLEAR     34  15  46 E3        30.15R
$$

ANZ330-335-338-340-345-350-353-355-300000-
COASTAL MARINE OBSERVATIONS


STATION/POSITION TIME  SKY/WX   TEMP    WIND        PRES    VSBY  WAVE
                                AIR SEA DIR/SP/G                  HT/PER
                 (UTC)          (F)     (DEG/KT/KT) (MB)    (MI)  (FT/S)
NY HARB ENTRANCE 2250            37 39  210/ 16/ 17 1021.8          3/10
4S FIRE IS       2203               37                N/A           3/11
20S FIRE ISLAND  2150               39              1022.9          4/11
23SW MTP         2250                                 N/A           4/10
HUDSON CANYON    NOT AVBL
EXECUTION ROCKS  NOT AVBL
WESTERN LI SOUND NOT AVBL
CENTRAL LI SOUND NOT AVBL
EASTERN LI SOUND NOT AVBL
ROBBINS REEF     2200            41     160/ 10/ 12 1020.5
$$


>>>>>>>>>>>>>>>>>>>>>>>>>>>> KEY <<<<<<<<<<<<<<<<<<<<<<<<<<<
>                                                          <
>     SKY/WX - SKY CONDITION/PRESENT WEATHER               <
>     TMP    - TEMPERATURE IN FAHRENHEIT                   <
>     DP     - DEWPOINT IN FAHRENHEIT                      <
>     RH     - RELATIVE HUMIDITY IN PERCENT                <
>     WIND   - DIRECTION AND SPEED IN MPH                  <
>     PRES   - MEAN SEA LEVEL PRESSURE IN INCHES OF HG     <
>     WCI    - WIND CHILL INDEX                            <
>     VSB    - VISIBILITY IN MILES                         <
>     HX     - HEAT INDEX                                  <
>     TC     - TEMPERATURE IN CELSIUS                      <
>     VRB    - VARIABLE WIND DIRECTION                     <
>                                                          <
>>>>>>>>>>>>>>>>>>>>>>>>>>>> KEY <<<<<<<<<<<<<<<<<<<<<<<<<<<




USA.gov is the U.S. government's official web portal to all federal, state and local government web resources and services.